Time,TemperatureF,DewpointF,PressureIn,WindDirection,WindDirectionDegrees,WindSpeedMPH,WindSpeedGustMPH,Humidity,HourlyPrecipIn,Conditions,Clouds,dailyrainin,SoftwareType,DateUTC
2016-07-30 00:05:00,82.0,77.4,30.05,ESE,112,4.0,4.0,86,0.00,,BKN280,0.00,VWS V15.00,2016-07-30 04:05:00,
2016-07-30 00:10:00,82.0,77.8,30.04,ESE,112,4.0,5.0,87,0.00,,BKN280,0.00,VWS V15.00,2016-07-30 04:10:00,
2016-07-30 00:15:00,82.0,77.8,30.04,ESE,112,4.0,4.0,87,0.00,,BKN280,0.00,VWS V15.00,2016-07-30 04:15:00,
2016-07-30 00:20:00,82.0,77.8,30.04,ESE,112,3.0,3.0,87,0.00,,BKN280,0.00,VWS V15.00,2016-07-30 04:20:00,
2016-07-30 00:25:00,82.0,77.8,30.04,ESE,112,2.0,2.0,87,0.00,,BKN280,0.00,VWS V15.00,2016-07-30 04:25:00,
2016-07-30 00:30:00,82.0,77.8,30.04,ESE,112,3.0,3.0,87,0.00,,BKN280,0.00,VWS V15.00,2016-07-30 04:30:00,
2016-07-30 00:35:00,82.0,78.1,30.04,ESE,112,4.0,4.0,88,0.00,,BKN280,0.00,VWS V15.00,2016-07-30 04:35:00,
2016-07-30 00:40:00,81.0,77.1,30.03,ESE,112,5.0,5.0,88,0.00,,BKN280,0.00,VWS V15.00,2016-07-30 04:40:00,
2016-07-30 00:45:00,81.0,76.8,30.03,ESE,112,3.0,4.0,87,0.00,,BKN280,0.00,VWS V15.00,2016-07-30 04:45:00,
2016-07-30 00:50:00,82.0,77.8,30.04,ESE,112,1.0,2.0,87,0.00,,BKN280,0.00,VWS V15.00,2016-07-30 04:50:00,
2016-07-30 00:55:00,82.0,77.8,30.03,ESE,112,1.0,2.0,87,0.00,,BKN280,0.00,VWS V15.00,2016-07-30 04:55:00,
2016-07-30 01:00:00,82.0,77.8,30.03,ESE,112,1.0,2.0,87,0.00,,BKN280,0.00,VWS V15.00,2016-07-30 05:00:00,
2016-07-30 01:05:00,81.0,76.8,30.03,ESE,112,0.0,2.0,87,0.00,,BKN260,0.00,VWS V15.00,2016-07-30 05:05:00,
2016-07-30 01:11:00,81.0,76.8,30.04,ESE,112,2.0,2.0,87,0.00,,BKN260,0.00,VWS V15.00,2016-07-30 05:11:00,
2016-07-30 01:16:00,81.0,76.8,30.04,ESE,112,2.0,2.0,87,0.00,,BKN260,0.00,VWS V15.00,2016-07-30 05:16:00,
2016-07-30 01:21:00,81.0,76.8,30.04,ESE,112,0.0,1.0,87,0.00,,BKN260,0.00,VWS V15.00,2016-07-30 05:21:00,
2016-07-30 01:26:00,81.0,77.1,30.03,ESE,112,0.0,0.0,88,0.00,,BKN260,0.00,VWS V15.00,2016-07-30 05:26:00,
2016-07-30 01:31:00,81.0,77.1,30.03,SW,225,2.0,2.0,88,0.00,,BKN260,0.00,VWS V15.00,2016-07-30 05:31:00,
2016-07-30 01:36:00,81.0,77.1,30.03,WSW,247,2.0,2.0,88,0.00,,BKN260,0.00,VWS V15.00,2016-07-30 05:36:00,
2016-07-30 01:41:00,81.0,77.1,30.03,WSW,247,2.0,2.0,88,0.00,,BKN260,0.00,VWS V15.00,2016-07-30 05:41:00,
2016-07-30 01:46:00,81.0,77.1,30.03,WSW,247,0.0,0.0,88,0.00,,BKN260,0.00,VWS V15.00,2016-07-30 05:46:00,
2016-07-30 01:51:00,81.0,77.1,30.03,South,180,2.0,3.0,88,0.00,,BKN260,0.00,VWS V15.00,2016-07-30 05:51:00,
2016-07-30 01:56:00,81.0,77.1,30.03,SSE,157,3.0,3.0,88,0.00,,BKN260,0.00,VWS V15.00,2016-07-30 05:56:00,
2016-07-30 02:06:00,81.0,77.1,30.02,SE,135,2.0,3.0,88,0.00,,BKN260,0.00,VWS V15.00,2016-07-30 06:06:00,
2016-07-30 02:11:00,81.0,77.1,30.02,SE,135,2.0,3.0,88,0.00,,BKN260,0.00,VWS V15.00,2016-07-30 06:11:00,
2016-07-30 02:16:00,81.0,77.5,30.02,SSE,157,2.0,3.0,89,0.00,,BKN260,0.00,VWS V15.00,2016-07-30 06:16:00,